Dewa Poker | DominoQQ | Capsa Susun | Ceme Keliling

Agen Bola Terpercaya

Jackpot

Texas Poker Multi Jackpot System

Kini Telah hadir Jackpot SUPER ROYAL FLUSH

Kini Telah hadir Jackpot 2000 (khusus table VIP keatas).

Ikutilah global jackpot yang tersedia di system kami, dengan system jackpot terbaru dan pertama di indonesia, anda dapat membeli jackpot dengan harga 100 rupiah saja dan menangkan hadiahnya hingga puluhan juta rupiah.

Jackpot bukanlah suatu keharusan untuk dibeli, namun kami memberikan suatu fitur tambahan untuk member tercinta dari www.dewakartu.net.

Terdapat tiga pilihan harga jackpot yang bisa anda beli yaitu :100,500,1000 dan 2000(khusus table VIP Keatas) rupiah.

Hadiah dari Multi jackpot system www.dewakartu.net

  1. full house x 10 harga jackpot yang anda beli.
      (contoh:anda membeli 1000 maka:1000 X10 = 10.000)
  2. four of kind x 250 harga jackpot yang anda beli
      (contoh:anda membeli 1000 maka:1000 X250 = 250.000)
  3. Straight flush x 1200
      (contoh:anda membeli 1000 maka:1000 X1200 = 1.200.000)
  4. Royal flush x 10000 harga jackpot yang anda beli
      (contoh:anda membeli 1000 maka:1000 X10000 = 10.000.000)
  5. SUPER ROYAL FLUSH x 30000 harga jackpot yang anda beli
      (contoh:anda membeli 1000 maka:1000 X30000 = 30.000.000)

Kondisi kartu

  1. full house adalah kondisi kartu dimana kartu anda dan kartu tengah dengan total 7 kartu bisa mendapatkan nilai 5 kartu dengan kombinasi 1 tris(three of kind) dan 1 pair, contoh 3 kartu 10 dan 2 kartu 5
  2. Four of kind adalah kondisi kartu dimana kartu anda dan kartu tengah dengan total 7 kartu bisa mendapatkan nilai 5 kartu dengan kombinasi 4 kartu yang sama jumlah dan 1 kartu apapun juga contoh anda mendapatkan 4 buah kartu angka 3 dan 1 kartu apapun.
  3. Staright flush adalah kondisi kartu dimana kartu anda dan kartu tengah dengan total 7 kartu bisa mendapatkan nilai 5 kartu dengan kombinasi seri / staright dengan kembang yang sama contoh : urutan kartu dari angka 5, 6, 7, 8 , 9 10 dengan kembang yg sama misalnya as hati
  4. Royal flush adalah kondisi kartu dimana kartu anda dan kartu tengah dengan total 7 kartu bisa mendapatkan nilai 5 kartu dengan kombinasi seri / staright dengan kembang yang sama tetapi kartu tersebut haruslah dimulai dari 10. contoh 10, Queen, Jack, King dan aces dengan kembang yang sama
  5. Super Royal flush adalah kondisi kartu dimana Kedua kartu anda digabung dengan 3 kartu pertama meja haruslah royal flush. contoh kartu anda 10,Queen kembang sama dan 3 kartu pertama meja adalah Jack, King dan aces dengan kembang yang sama

Demikian adalah penjelasan dari Multi Jackpot www.dewakartu.net terima kasih dan selamat bermain salam hoki dari kami

Texas Poker Jackpot Winner

TOP SUPER ROYAL FLUSH
No.TanggalNamaPriceWin
123/05 07:04KOJO79Super Royal flush15,000,000
223/05 05:00E11P33Super Royal flush3,000,000
322/05 22:06PAIRASBAESuper Royal flush30,000,000
422/05 21:43FAIZUN12Super Royal flush3,000,000
522/05 06:24XE3HSMNDJSuper Royal flush30,000,000
TOP ROYAL FLUSH
No.TanggalNamaPriceWin
123/05 05:25BATORU18Royal flush10,000,000
223/05 05:21XCIMER87Royal flush10,000,000
323/05 05:11AHUT99Royal flush1,000,000
423/05 04:40AIIY77Royal flush1,000,000
523/05 04:39ALIK1234Royal flush5,000,000
TOP STRAIGHT FLUSH
No.TanggalNamaPriceWin
123/05 08:15SNI24147Straight Flush600,000
223/05 08:10BAGOES17Straight Flush600,000
323/05 07:51TIMIN108Straight Flush1,200,000
423/05 07:43BER6174Straight Flush1,200,000
523/05 07:43PLEKENUT18Straight Flush600,000
LATEST JACKPOT
No.TanggalNamaPriceWin
123/05 08:16TADI03Full House5,000
223/05 08:16A683442FFull House5,000
323/05 08:15AA940757F2Full House1,000
423/05 08:15SP4RT4Z789Full House5,000
523/05 08:15BNIJPFull House5,000
623/05 08:15OM_NOKFull House10,000
723/05 08:15JP_PRANKFull House1,000
823/05 08:15DIAN0205Full House5,000
923/05 08:15191273IDFull House10,000
1023/05 08:15G16O_LOFull House5,000
1123/05 08:15APIAPI99Full House5,000
1223/05 08:15BOJES22222Full House10,000
1323/05 08:15EB15B4D0Full House10,000
1423/05 08:15A592909FFull House1,000
1523/05 08:15KLASS69Full House1,000
1623/05 08:15A96D1FA6Full House1,000
1723/05 08:15CEPI270495Full House1,000
1823/05 08:15C4F19B4CFull House1,000
1923/05 08:15L0RD123Full House5,000
2023/05 08:15IDSI05Full House1,000
2123/05 08:15TARIK2828Full House5,000
2223/05 08:15SNI24147Straight Flush600,000
2323/05 08:15KTNK1234Full House1,000
2423/05 08:15MATIALUSFull House10,000
2523/05 08:15S49U3RFull House5,000
2623/05 08:15JOKER811Full House5,000
2723/05 08:15SAGILEXFull House10,000
2823/05 08:15TAC10Full House1,000
2923/05 08:14OMYOGIFull House5,000
3023/05 08:14ARBANI99Full House5,000
3123/05 08:14DAYMAN802Full House5,000
3223/05 08:14GTNET89Full House10,000
3323/05 08:14OMOKIMO8Full House10,000
3423/05 08:14BOMA1993Full House5,000
3523/05 08:14JAKENSOFull House10,000
3623/05 08:14TEMPLESFull House1,000
3723/05 08:14BUNTAU19Full House1,000
3823/05 08:14GOLDMUCHFull House10,000
3923/05 08:14MAYAKARLA7Full House10,000
4023/05 08:14BRICILIAFull House10,000
4123/05 08:14NIKOZINFull House1,000
4223/05 08:14BIN111Full House1,000
4323/05 08:14ICHALIANOFull House1,000
4423/05 08:14MONCROOT88Full House5,000
4523/05 08:14IYLD33W1UZFull House1,000
4623/05 08:14LUCKYSEV77Four Of A Kind125,000
4723/05 08:14BLIANDFull House10,000
4823/05 08:14DHIKAMANAFull House5,000
4923/05 08:13MUCHGOLDFull House10,000
5023/05 08:13KTNK1234Full House1,000

Domino Multi Jackpot System

Ikutilah global jackpot yang tersedia di system kami, dengan system jackpot terbaru dan pertama di indonesia, anda dapat membeli jackpot dengan harga 100 rupiah saja dan menangkan hadiahnya hingga puluhan juta rupiah.

Jackpot bukanlah suatu keharusan untuk dibeli, namun kami memberikan suatu fitur tambahan untuk member tercinta dari www.dewakartu.net.

Terdapat tiga pilihan harga jackpot yang bisa anda beli yaitu :100,500 dan 1000 rupiah.

Hadiah dari Multi jackpot system www.dewakartu.net

  1. Murni Kecil x 50 harga jackpot yang anda beli.
      (contoh:anda membeli 1000 maka:1000 X 50 = 50.000)
  2. Murni Besar x 50 harga jackpot yang anda beli
      (contoh:anda membeli 1000 maka:1000 X 50 = 50.000)
  3. BALAK x 100 harga jackpot yang anda beli
      (contoh:anda membeli 1000 maka:1000 X 100 = 100.000)
  4. ENAM DEWA x 6666 harga jackpot yang anda beli
      (contoh:anda membeli 1000 maka:1000 X 6666 = 6.666.000)

Demikian adalah penjelasan dari Multi Jackpot www.dewakartu.net terima kasih dan selamat bermain salam hoki dari kami

Domino Jackpot Winner

TOP ENAM DEWA
No.TanggalNamaPriceWin
123/05 03:08MAELL33murni enam666,600
223/05 02:34JUVVE10murni enam3,333,000
323/05 01:55MEI_63murni enam6,666,000
423/05 01:44TONILAUWmurni enam6,666,000
523/05 01:35SNJYA26murni enam6,666,000
TOP BALAK
No.TanggalNamaPriceWin
123/05 08:15SURO9balak100,000
223/05 08:13FIVESTARbalak50,000
323/05 08:11COMEBACK13balak100,000
423/05 08:09AMUAHRABAHbalak10,000
523/05 07:59RAFF456balak50,000
LATEST JACKPOT
No.TanggalNamaPriceWin
123/05 08:15NOMBER21murni kecil50,000
223/05 08:15SURO9balak100,000
323/05 08:14BOSKURDmurni besar50,000
423/05 08:14TOPANLUBISmurni besar25,000
523/05 08:13FIVESTARbalak50,000
623/05 08:12ALLYENKPmurni besar50,000
723/05 08:12MONROWAEmurni kecil50,000
823/05 08:12HENDRIK03murni besar50,000
923/05 08:11COMEBACK13balak100,000
1023/05 08:09AMUAHRABAHbalak10,000
1123/05 08:09ANDUS70murni besar50,000
1223/05 08:08ALLYENKPmurni besar50,000
1323/05 08:06BUNGKUSSSmurni kecil50,000
1423/05 08:06SUPAN33murni besar50,000
1523/05 08:06ABCD9060murni kecil5,000
1623/05 08:06N6ZLGH1ZT0murni besar25,000
1723/05 08:05ANTASIDAmurni kecil50,000
1823/05 08:04RIODOmurni kecil50,000
1923/05 08:04R890NOA0J8murni besar50,000
2023/05 08:04AISS008murni besar50,000
2123/05 08:03EDDOE76murni besar5,000
2223/05 08:01BOSSLEDISmurni besar50,000
2323/05 08:01HJKGDUYRC1murni besar5,000
2423/05 07:59RAFF456balak50,000
2523/05 07:59KIU2222murni kecil50,000
2623/05 07:58ECHAPOmurni kecil25,000
2723/05 07:56K3J0R42410murni besar50,000
2823/05 07:56MNB098murni besar50,000
2923/05 07:54CEMEN48murni besar5,000
3023/05 07:51F75AB1BAmurni besar25,000
3123/05 07:49JELA03balak10,000
3223/05 07:47W4RUNGmurni kecil25,000
3323/05 07:45JOKYANDImurni besar50,000
3423/05 07:43AISS008murni besar50,000
3523/05 07:40NURMAN321murni besar50,000
3623/05 07:40ROMONG12murni kecil25,000
3723/05 07:39ROEDY80murni besar50,000
3823/05 07:39YAPRILmurni kecil25,000
3923/05 07:36BLACKPINKmurni besar5,000
4023/05 07:36LSJZX9WRINmurni kecil25,000
4123/05 07:35ASEPKOSLETbalak100,000
4223/05 07:33ANISSATANbalak10,000
4323/05 07:31ANDUS70murni besar50,000
4423/05 07:31AKM1233balak10,000
4523/05 07:31JOKYANDIbalak100,000
4623/05 07:31C1T4T4murni kecil25,000
4723/05 07:28BLACKPINKbalak10,000
4823/05 07:28SUMEK11murni kecil5,000
4923/05 07:27COMEBACK13balak100,000
5023/05 07:27LOHQCDKQ10murni besar25,000

Ceme Multi Jackpot System

Jackpot dilihat dari gabungan kartu pemain dengan kartu bandar. Bandar harus membeli jackpot sebanyak jumlah player yang sedang duduk. Sebagai contoh bila terdapat 3 pemain duduk bermain, dan bandar memutuskan untuk membeli jackpot Rp 1.000, maka pada periode tersebut bandar akan membeli jackpot sebanyak 3xRp1.000 = Rp3.000.

Jackpot bukanlah suatu keharusan untuk dibeli, namun kami memberikan suatu fitur tambahan untuk member tercinta dari www.dewakartu.net.

Terdapat tiga pilihan harga jackpot yang bisa anda beli yaitu :100,500 dan 1000 rupiah.

Hadiah dari Multi jackpot system www.dewakartu.net

  1. Murni Kecil x 50 harga jackpot yang anda beli.
      (contoh:anda membeli 1000 maka:1000 X 50 = 50.000)
  2. Murni Besar x 50 harga jackpot yang anda beli
      (contoh:anda membeli 1000 maka:1000 X 50 = 50.000)
  3. BALAK x 200 harga jackpot yang anda beli
      (contoh:anda membeli 1000 maka:1000 X 200 = 200.000)
  4. ENAM DEWA x 6666 harga jackpot yang anda beli
      (contoh:anda membeli 1000 maka:1000 X 6666 = 6.666.000)

Demikian adalah penjelasan dari Multi Jackpot www.dewakartu.net terima kasih dan selamat bermain salam hoki dari kami

Ceme Jackpot Winner

TOP ENAM DEWA
No.TanggalNamaPriceWin
123/05 07:36HERYTOZmurni enam3,333,000
223/05 07:30QQRIKOQmurni enam3,333,000
323/05 07:02YAYA6666YAmurni enam6,666,000
423/05 06:28TINGTOOT02murni enam3,333,000
523/05 05:55E9897D8Dmurni enam666,600
TOP BALAK
No.TanggalNamaPriceWin
123/05 08:15POYO667balak200,000
223/05 08:15ETTAAAAbalak200,000
323/05 08:15LAYKESbalak100,000
423/05 08:12YUDY19balak200,000
523/05 08:09WEKET99balak100,000
LATEST JACKPOT
No.TanggalNamaPriceWin
123/05 08:15GOALJP57murni kecil25,000
223/05 08:15BAR_PUSmurni kecil25,000
323/05 08:15POYO667balak200,000
423/05 08:15COCOYUNFATmurni kecil50,000
523/05 08:15SEHAN212murni kecil50,000
623/05 08:15WA15murni kecil50,000
723/05 08:15MORHEIM259murni besar50,000
823/05 08:15ETTAAAAbalak200,000
923/05 08:15LAYKESbalak100,000
1023/05 08:14C93C881Emurni kecil50,000
1123/05 08:14KURSAY07murni kecil5,000
1223/05 08:13YAZIDNmurni kecil5,000
1323/05 08:13MBOHAYYmurni kecil50,000
1423/05 08:12YUDY19balak200,000
1523/05 08:12YU2N33Nmurni besar25,000
1623/05 08:12ETTAAAAmurni besar50,000
1723/05 08:12LAYKESmurni besar25,000
1823/05 08:12KUDADEWA99murni kecil5,000
1923/05 08:12EKONOMI123murni kecil5,000
2023/05 08:12WAXYUILVmurni kecil5,000
2123/05 08:11AZAH11murni kecil50,000
2223/05 08:11VIRUZ888murni kecil50,000
2323/05 08:11ONEONE07murni kecil25,000
2423/05 08:09NURSYA09murni kecil5,000
2523/05 08:09WEKET99balak100,000
2623/05 08:09AZLAN369murni kecil25,000
2723/05 08:09MFIEmurni besar25,000
2823/05 08:08SAMSUNG213murni besar50,000
2923/05 08:08JUWITA_78murni besar25,000
3023/05 08:07SAHAR19murni kecil50,000
3123/05 08:07YUDY19murni kecil50,000
3223/05 08:06YU2N33Nmurni kecil25,000
3323/05 08:06YUDII282murni besar50,000
3423/05 08:06INA91murni besar50,000
3523/05 08:06YUDY19balak200,000
3623/05 08:06P6FAZSGZSVmurni besar5,000
3723/05 08:05PISANGABE2balak200,000
3823/05 08:05ARPANDOmurni kecil50,000
3923/05 08:04BXG44G11BDmurni besar50,000
4023/05 08:04INCENT178murni besar25,000
4123/05 08:04FIERLY12murni kecil5,000
4223/05 08:04FIKmurni kecil25,000
4323/05 08:04M4DG0B3Rmurni besar50,000
4423/05 08:04SANOMEKmurni besar5,000
4523/05 08:04YAZIDNmurni besar5,000
4623/05 08:03FVANNImurni kecil50,000
4723/05 08:03SLOWWbalak200,000
4823/05 08:03UNCUY98murni kecil50,000
4923/05 08:03H590402Dmurni kecil25,000
5023/05 08:03UNCUY98murni kecil50,000